Location: Unspecified
(0.0000°N, 0.0000°E)
Time: 02:36:46
(UTC+00:00)

Vanguard 2 Rocket - All Passes

Search period start: 03 July 2015 00:00
Search period end: 13 July 2015 00:00
Orbit: 555 x 3331 km, 32.9° (Epoch: 02 July)

Date Brightness Start Highest point End Pass type
(mag) Time Alt. Az. Time Alt. Az. Time Alt. Az.
03 Jul - 01:10:21 10° NW 01:22:26 19° N 01:34:40 10° NE visible
03 Jul - 03:30:37 10° NNW 03:46:10 29° NNE 03:58:28 10° ENE visible
03 Jul - 05:48:59 10° NW 06:05:52 62° NNE 06:15:39 10° ESE daylight
03 Jul - 08:09:23 10° WNW 08:21:04 42° SW 08:27:48 10° SSE daylight
03 Jul - 17:18:11 10° SSW 17:23:27 33° SE 17:32:02 10° ENE daylight
03 Jul - 19:29:43 10° WSW 19:37:39 62° NNW 19:51:55 10° NE visible
03 Jul - 21:45:59 10° WNW 21:56:12 27° NNW 22:10:11 10° NNE visible
04 Jul - 00:07:59 10° NW 00:19:10 18° N 00:31:22 10° NE visible
04 Jul - 02:29:01 10° NNW 02:43:38 24° NNE 02:56:44 10° ENE visible
04 Jul - 04:47:17 10° NW 05:04:57 49° NNE 05:16:21 10° E visible
04 Jul - 07:06:47 10° WNW 07:21:46 66° SW 07:30:02 10° SE daylight
04 Jul - 09:31:54 10° WSW 09:35:45 13° SW 09:38:26 10° SSW daylight
04 Jul - 16:21:35 10° S 16:24:46 16° SE 16:29:10 10° ESE daylight
04 Jul - 18:31:17 10° WSW 18:37:59 86° NW 18:50:23 10° NE visible
04 Jul - 20:45:47 10° W 20:54:49 32° NNW 21:08:30 10° NE visible
04 Jul - 23:05:57 10° NW 23:16:12 19° N 23:28:11 10° NNE visible
05 Jul - 01:27:29 10° NNW 01:40:38 21° N 01:53:52 10° NE visible
05 Jul - 03:45:47 10° NW 04:03:22 39° NNE 04:16:17 10° E visible
05 Jul - 06:04:29 10° NW 06:21:54 88° NE 06:31:43 10° SE daylight
05 Jul - 08:27:00 10° W 08:36:34 26° SW 08:42:35 10° SSE daylight
05 Jul - 17:33:19 10° SW 17:38:56 59° SE 17:48:50 10° ENE daylight
05 Jul - 19:46:19 10° W 19:54:06 40° NNW 20:07:03 10° NE visible
05 Jul - 22:04:30 10° NW 22:13:47 20° N 22:25:30 10° NNE visible
06 Jul - 00:26:01 10° NNW 00:37:27 19° N 00:50:00 10° NE visible
06 Jul - 02:44:31 10° NNW 03:01:10 32° NNE 03:15:16 10° E visible
06 Jul - 05:02:31 10° NW 05:21:20 68° NNE 05:32:52 10° ESE visible
06 Jul - 07:23:28 10° WNW 07:37:16 43° SW 07:45:15 10° SSE daylight
06 Jul - 16:35:50 10° SSW 16:40:18 31° SE 16:47:11 10° E daylight
06 Jul - 18:47:24 10° WSW 18:54:04 53° NNW 19:05:49 10° NE visible
06 Jul - 21:03:44 10° WNW 21:12:03 22° NNW 21:23:23 10° NNE visible
06 Jul - 23:24:40 10° NNW 23:34:21 17° N 23:45:40 10° NE visible
07 Jul - 01:43:30 10° NNW 01:58:29 26° NNE 02:13:04 10° ENE visible
07 Jul - 04:00:55 10° NW 04:20:05 54° NNE 04:33:21 10° ESE visible
07 Jul - 06:20:31 10° WNW 06:37:33 65° SW 06:47:19 10° SE daylight
07 Jul - 08:46:15 10° WSW 08:52:22 15° SW 08:56:31 10° S daylight
07 Jul - 15:39:20 10° S 15:41:44 14° SE 15:44:51 10° ESE daylight
07 Jul - 17:48:59 10° WSW 17:54:39 77° NNW 18:04:48 10° NE daylight
07 Jul - 20:03:39 10° WNW 20:11:00 26° NNW 20:21:51 10° NNE visible
07 Jul - 22:23:28 10° NW 22:31:42 16° N 22:41:39 10° NNE visible
08 Jul - 00:42:44 10° NNW 00:55:31 22° NNE 01:09:32 10° ENE visible
08 Jul - 02:59:41 10° NW 03:18:12 43° NNE 03:33:00 10° E visible
08 Jul - 05:18:05 10° NW 05:37:16 87° SW 05:48:49 10° SE visible
08 Jul - 07:41:11 10° W 07:52:50 28° SW 08:00:05 10° SSE daylight
08 Jul - 16:50:58 10° SW 16:55:49 63° SE 17:03:51 10° ENE daylight
08 Jul - 19:04:12 10° W 19:10:37 32° NNW 19:20:47 10° NE visible
08 Jul - 21:22:31 10° NW 21:29:38 16° N 21:38:31 10° NNE visible
08 Jul - 23:42:14 10° NNW 23:52:32 18° N 00:04:47 10° NE visible
09 Jul - 01:58:53 10° NNW 02:15:51 34° NNE 02:31:36 10° E visible
09 Jul - 04:16:11 10° NW 04:36:18 73° NNE 04:49:44 10° ESE visible
09 Jul - 06:37:18 10° WNW 06:53:05 44° SW 07:02:31 10° SSE daylight
09 Jul - 15:53:26 10° SSW 15:57:19 30° SE 16:02:52 10° E daylight
09 Jul - 18:05:16 10° W 18:10:49 42° NNW 18:20:05 10° NE daylight
09 Jul - 20:21:58 10° NW 20:28:16 18° N 20:36:27 10° NNE visible
09 Jul - 22:41:55 10° NNW 22:49:47 15° N 22:59:25 10° NE visible
10 Jul - 00:58:28 10° NNW 01:13:11 27° NNE 01:28:53 10° ENE visible
10 Jul - 03:14:50 10° NW 03:34:44 58° NNE 03:49:56 10° ESE visible
10 Jul - 05:34:11 10° WNW 05:52:54 64° SW 06:04:21 10° SE visible
10 Jul - 08:00:20 10° WSW 08:08:44 18° SW 08:14:20 10° S daylight
10 Jul - 14:56:51 10° S 14:58:48 13° SE 15:01:10 10° ESE daylight
10 Jul - 17:06:45 10° WSW 17:11:36 65° NNW 17:19:40 10° NE daylight
10 Jul - 19:21:54 10° WNW 19:27:32 20° NNW 19:35:17 10° NNE visible
10 Jul - 21:41:41 10° NNW 21:47:30 13° N 21:54:30 10° NNE visible
10 Jul - 23:58:29 10° NNW 00:10:25 22° NNE 00:24:40 10° ENE visible
11 Jul - 02:14:01 10° NW 02:32:41 46° NNE 02:49:15 10° E visible
11 Jul - 04:31:50 10° NW 04:52:10 84° SW 05:05:37 10° SE visible
11 Jul - 06:55:06 10° W 07:08:45 30° SW 07:17:23 10° SSE daylight
11 Jul - 16:08:37 10° SW 16:12:54 69° SE 16:19:23 10° ENE daylight
11 Jul - 18:22:20 10° WNW 18:27:25 24° NNW 18:34:49 10° NNE visible
11 Jul - 20:41:25 10° NNW 20:45:49 13° N 20:50:57 10° NNE visible
11 Jul - 22:58:54 10° NNW 23:07:47 17° NNE 23:19:03 10° NE visible
12 Jul - 01:13:44 10° NNW 01:30:19 36° NNE 01:47:24 10° E visible
12 Jul - 03:30:10 10° NW 03:50:50 77° NE 04:06:14 10° ESE visible
12 Jul - 05:51:03 10° WNW 06:08:31 45° SW 06:19:32 10° SSE daylight
12 Jul - 08:22:28 10° SW 08:25:06 11° SSW 08:26:38 10° SSW daylight
12 Jul - 15:10:54 10° SSW 15:14:29 31° SE 15:19:04 10° E daylight
12 Jul - 17:23:15 10° W 17:27:51 32° NNW 17:34:47 10° NE daylight
12 Jul - 19:41:01 10° NNW 19:44:48 13° N 19:49:09 10° NNE visible
12 Jul - 21:59:49 10° NNW 22:05:27 13° N 22:12:35 10° NE visible
